Terminal Aerodrome Forecast
Issued by NWS

Current Version | Previous Version | Text Only | Print | Product List | Glossary On
Versions: 1 2 3 4 5 6 7 8 9 10 11 12 13 14 15 16 17 18 19 20 21 22 23 24 25 26 27 28 29 30 31 32 33 34 35 36 37 38 39 40 41 42
000
FTUS42 KMFL 221739
TAFTMB
TAF
KTMB 221739Z 2218/2318 12009KT P6SM VCTS SCT028CB SCT050 BKN200
     FM230100 VRB03KT P6SM VCSH SCT030 BKN120 BKN200
     FM231400 12009KT P6SM VCSH SCT030 BKN250=

USA.gov is the U.S. government's official web portal to all federal, state and local government web resources and services.